Time,TemperatureF,DewpointF,PressureIn,WindDirection,WindDirectionDegrees,WindSpeedMPH,WindSpeedGustMPH,Humidity,HourlyPrecipIn,Conditions,Clouds,dailyrainin,SoftwareType,DateUTC
2013-02-18 00:00:00,15.4,5.8,29.91,NNW,347,0.0,9.8,65,0.00,,CLR,0.00,VWS V14.00,2013-02-18 05:00:00,
2013-02-18 00:01:00,15.3,5.8,29.91,WSW,252,0.0,8.9,65,0.00,,CLR,0.00,VWS V14.00,2013-02-18 05:01:00,
2013-02-18 00:06:00,15.4,6.5,29.92,NE,38,0.0,22.2,67,0.00,,CLR,0.00,VWS V14.00,2013-02-18 05:06:00,
2013-02-18 00:11:00,15.4,6.1,29.91,SW,233,0.0,0.0,66,0.00,,CLR,0.00,VWS V14.00,2013-02-18 05:11:00,
2013-02-18 00:16:00,15.5,6.2,29.92,SW,233,0.0,0.0,66,0.00,,CLR,0.00,VWS V14.00,2013-02-18 05:16:00,
2013-02-18 00:21:00,15.5,6.1,29.92,SW,233,0.0,0.0,66,0.00,,CLR,0.00,VWS V14.00,2013-02-18 05:21:00,
2013-02-18 00:27:00,15.4,5.9,29.92,West,263,0.0,18.0,66,0.00,,CLR,0.00,VWS V14.00,2013-02-18 05:27:00,
2013-02-18 00:32:00,15.5,6.2,29.92,WNW,285,0.0,0.0,66,0.00,,CLR,0.00,VWS V14.00,2013-02-18 05:32:00,
2013-02-18 00:37:00,15.5,6.6,29.93,East,96,0.0,6.2,67,0.00,,CLR,0.00,VWS V14.00,2013-02-18 05:37:00,
2013-02-18 00:42:00,15.6,6.4,29.93,East,96,0.0,0.0,66,0.00,,CLR,0.00,VWS V14.00,2013-02-18 05:42:00,
2013-02-18 00:47:00,15.4,6.2,29.93,WNW,284,7.8,11.7,66,0.00,,CLR,0.00,VWS V14.00,2013-02-18 05:47:00,
2013-02-18 00:52:00,15.6,6.4,29.93,West,259,0.0,10.5,66,0.00,,CLR,0.00,VWS V14.00,2013-02-18 05:52:00,
2013-02-18 00:57:00,15.7,6.5,29.93,NNW,343,0.0,10.5,66,0.00,,CLR,0.00,VWS V14.00,2013-02-18 05:57:00,
2013-02-18 01:02:00,15.6,6.1,29.93,WSW,250,0.0,9.1,66,0.00,,CLR,0.00,VWS V14.00,2013-02-18 06:02:00,
2013-02-18 01:07:00,15.8,6.3,29.94,WSW,250,0.0,9.1,66,0.00,,CLR,0.00,VWS V14.00,2013-02-18 06:07:00,
2013-02-18 01:13:00,15.8,6.3,29.94,WNW,300,0.0,13.6,65,0.00,,CLR,0.00,VWS V14.00,2013-02-18 06:13:00,
2013-02-18 01:18:00,15.8,6.2,29.94,WSW,255,5.2,20.1,65,0.00,,CLR,0.00,VWS V14.00,2013-02-18 06:18:00,
2013-02-18 01:23:00,15.8,6.4,29.94,WNW,302,0.0,13.7,66,0.00,,CLR,0.00,VWS V14.00,2013-02-18 06:23:00,
2013-02-18 01:28:00,15.8,6.4,29.95,NW,315,5.6,13.7,66,0.00,,CLR,0.00,VWS V14.00,2013-02-18 06:28:00,
2013-02-18 01:33:00,16.0,6.8,29.95,NE,48,0.0,0.0,66,0.00,,CLR,0.00,VWS V14.00,2013-02-18 06:33:00,
2013-02-18 01:38:00,15.9,6.3,29.95,ENE,68,0.0,3.2,65,0.00,,CLR,0.00,VWS V14.00,2013-02-18 06:38:00,
2013-02-18 01:43:00,15.9,6.4,29.95,WSW,245,0.0,6.9,66,0.00,,CLR,0.00,VWS V14.00,2013-02-18 06:43:00,
2013-02-18 01:48:00,15.8,6.4,29.95,ENE,69,0.0,17.7,66,0.00,,CLR,0.00,VWS V14.00,2013-02-18 06:48:00,
2013-02-18 01:53:00,15.9,6.5,29.95,NNW,328,0.0,9.9,66,0.00,,CLR,0.00,VWS V14.00,2013-02-18 06:53:00,
2013-02-18 01:58:00,15.9,6.6,29.95,WNW,290,6.4,12.4,66,0.00,,CLR,0.00,VWS V14.00,2013-02-18 06:58:00,
2013-02-18 02:03:00,15.9,6.4,29.95,WSW,255,6.0,15.0,66,0.00,,CLR,0.00,VWS V14.00,2013-02-18 07:03:00,
2013-02-18 02:08:00,16.0,6.3,29.95,North,0,0.0,15.0,65,0.00,,CLR,0.00,VWS V14.00,2013-02-18 07:08:00,
2013-02-18 02:13:00,16.0,6.2,29.95,NNE,14,0.0,11.4,65,0.00,,CLR,0.00,VWS V14.00,2013-02-18 07:13:00,
2013-02-18 02:18:00,15.9,6.0,29.95,West,264,13.9,16.8,64,0.00,,CLR,0.00,VWS V14.00,2013-02-18 07:18:00,
2013-02-18 02:24:00,16.0,6.4,29.94,WSW,256,0.0,9.9,65,0.00,,CLR,0.00,VWS V14.00,2013-02-18 07:24:00,
2013-02-18 02:29:00,15.9,6.1,29.95,WSW,256,0.0,9.9,65,0.00,,CLR,0.00,VWS V14.00,2013-02-18 07:29:00,
2013-02-18 02:34:00,16.0,6.0,29.94,West,269,0.0,15.5,64,0.00,,CLR,0.00,VWS V14.00,2013-02-18 07:34:00,
2013-02-18 02:39:00,16.0,5.9,29.95,West,267,7.5,22.8,64,0.00,,CLR,0.00,VWS V14.00,2013-02-18 07:39:00,
2013-02-18 02:44:00,15.7,6.4,29.95,WNW,287,6.0,20.9,66,0.00,,CLR,0.00,VWS V14.00,2013-02-18 07:44:00,
2013-02-18 02:49:00,15.9,6.3,29.95,NW,314,0.0,20.9,65,0.00,,CLR,0.00,VWS V14.00,2013-02-18 07:49:00,
2013-02-18 02:54:00,15.9,6.1,29.95,WNW,298,0.0,7.7,65,0.00,,CLR,0.00,VWS V14.00,2013-02-18 07:54:00,
2013-02-18 02:59:00,15.9,6.5,29.96,WNW,291,0.0,13.7,66,0.00,,CLR,0.00,VWS V14.00,2013-02-18 07:59:00,
2013-02-18 03:04:00,15.9,6.3,29.96,SW,214,0.0,13.8,65,0.00,,CLR,0.00,VWS V14.00,2013-02-18 08:04:00,
2013-02-18 03:09:00,15.9,6.1,29.97,NNE,22,0.0,13.8,64,0.00,,CLR,0.00,VWS V14.00,2013-02-18 08:09:00,
2013-02-18 03:14:00,15.9,6.1,29.96,NNE,22,0.0,0.0,64,0.00,,CLR,0.00,VWS V14.00,2013-02-18 08:14:00,
2013-02-18 03:19:00,15.7,6.0,29.97,WNW,290,9.1,13.6,65,0.00,,CLR,0.00,VWS V14.00,2013-02-18 08:19:00,
2013-02-18 03:24:00,15.9,6.1,29.97,NW,325,5.1,9.3,65,0.00,,CLR,0.00,VWS V14.00,2013-02-18 08:24:00,
2013-02-18 03:29:00,15.7,6.2,29.98,East,86,0.0,11.9,66,0.00,,CLR,0.00,VWS V14.00,2013-02-18 08:29:00,
2013-02-18 03:34:00,15.8,5.9,29.98,WNW,292,0.0,13.7,64,0.00,,CLR,0.00,VWS V14.00,2013-02-18 08:34:00,
2013-02-18 03:39:00,15.8,6.0,29.98,North,0,0.0,13.7,65,0.00,,CLR,0.00,VWS V14.00,2013-02-18 08:39:00,
2013-02-18 03:44:00,15.9,6.3,29.98,West,273,0.0,9.9,65,0.00,,CLR,0.00,VWS V14.00,2013-02-18 08:44:00,
2013-02-18 03:49:00,15.8,6.2,29.98,WSW,253,0.0,13.0,65,0.00,,CLR,0.00,VWS V14.00,2013-02-18 08:49:00,
2013-02-18 03:54:00,15.8,5.8,29.99,WSW,243,0.0,18.8,64,0.00,,CLR,0.00,VWS V14.00,2013-02-18 08:54:00,
2013-02-18 03:59:00,15.7,5.9,30.00,West,271,0.0,18.8,64,0.00,,CLR,0.00,VWS V14.00,2013-02-18 08:59:00,
2013-02-18 04:04:00,15.7,5.6,29.99,SW,218,0.0,12.6,64,0.00,,CLR,0.00,VWS V14.00,2013-02-18 09:04:00,
2013-02-18 04:10:00,15.7,5.6,30.00,NW,304,8.9,12.6,64,0.00,,CLR,0.00,VWS V14.00,2013-02-18 09:10:00,
2013-02-18 04:15:00,15.8,5.8,30.01,WSW,257,0.0,16.0,64,0.00,,CLR,0.00,VWS V14.00,2013-02-18 09:15:00,
2013-02-18 04:20:00,15.8,5.7,30.01,NW,309,0.0,0.0,64,0.00,,CLR,0.00,VWS V14.00,2013-02-18 09:20:00,
2013-02-18 04:25:00,15.7,6.1,30.02,NW,309,5.6,11.4,65,0.00,,CLR,0.00,VWS V14.00,2013-02-18 09:25:00,
2013-02-18 04:30:00,15.8,5.8,30.02,WNW,287,0.0,0.0,64,0.00,,CLR,0.00,VWS V14.00,2013-02-18 09:30:00,
2013-02-18 04:35:00,15.8,6.1,30.02,NNW,342,0.0,9.5,65,0.00,,CLR,0.00,VWS V14.00,2013-02-18 09:35:00,
2013-02-18 04:40:00,15.7,6.1,30.03,NNE,15,0.0,0.0,65,0.00,,CLR,0.00,VWS V14.00,2013-02-18 09:40:00,
2013-02-18 04:45:00,15.7,6.6,30.02,NW,318,0.0,8.4,67,0.00,,CLR,0.00,VWS V14.00,2013-02-18 09:45:00,
2013-02-18 04:50:00,15.6,6.2,30.03,NW,318,0.0,0.0,66,0.00,,CLR,0.00,VWS V14.00,2013-02-18 09:50:00,
2013-02-18 04:55:00,15.5,6.1,30.03,West,278,0.0,14.2,66,0.00,,CLR,0.00,VWS V14.00,2013-02-18 09:55:00,
2013-02-18 05:00:00,15.5,6.2,30.03,WNW,295,0.0,0.0,66,0.00,,CLR,0.00,VWS V14.00,2013-02-18 10:00:00,
2013-02-18 05:05:00,15.4,6.0,30.03,NNE,20,5.6,6.8,66,0.00,,CLR,0.00,VWS V14.00,2013-02-18 10:05:00,
2013-02-18 05:10:00,15.4,6.2,30.03,WSW,239,0.0,0.0,66,0.00,,CLR,0.00,VWS V14.00,2013-02-18 10:10:00,
2013-02-18 05:16:00,15.6,6.5,30.03,NW,316,0.0,6.8,67,0.00,,CLR,0.00,VWS V14.00,2013-02-18 10:16:00,
2013-02-18 05:21:00,15.4,6.1,30.04,SW,215,0.0,0.0,66,0.00,,CLR,0.00,VWS V14.00,2013-02-18 10:21:00,
2013-02-18 05:26:00,15.4,6.1,30.05,SW,215,0.0,0.0,66,0.00,,CLR,0.00,VWS V14.00,2013-02-18 10:26:00,
2013-02-18 05:31:00,15.4,6.2,30.05,SW,215,0.0,0.0,66,0.00,,CLR,0.00,VWS V14.00,2013-02-18 10:31:00,
2013-02-18 05:36:00,15.4,6.3,30.05,NE,55,0.0,8.5,67,0.00,,CLR,0.00,VWS V14.00,2013-02-18 10:36:00,
2013-02-18 05:41:00,15.3,6.0,30.06,WSW,243,0.0,0.0,66,0.00,,CLR,0.00,VWS V14.00,2013-02-18 10:41:00,
2013-02-18 05:46:00,15.4,6.1,30.06,WSW,243,0.0,0.0,66,0.00,,CLR,0.00,VWS V14.00,2013-02-18 10:46:00,
2013-02-18 05:51:00,15.3,6.2,30.07,WSW,243,0.0,0.0,66,0.00,,CLR,0.00,VWS V14.00,2013-02-18 10:51:00,
2013-02-18 05:56:00,15.3,6.5,30.07,WSW,243,0.0,0.0,68,0.00,,CLR,0.00,VWS V14.00,2013-02-18 10:56:00,
2013-02-18 06:01:00,15.2,6.4,30.07,WSW,243,0.0,0.0,68,0.00,,CLR,0.00,VWS V14.00,2013-02-18 11:01:00,
2013-02-18 06:06:00,15.1,6.2,30.08,WSW,243,0.0,0.0,67,0.00,,CLR,0.00,VWS V14.00,2013-02-18 11:06:00,
2013-02-18 06:11:00,15.3,6.4,30.08,WSW,243,0.0,0.0,67,0.00,,CLR,0.00,VWS V14.00,2013-02-18 11:11:00,
2013-02-18 06:17:00,15.1,6.4,30.08,WSW,243,0.0,0.0,68,0.00,,CLR,0.00,VWS V14.00,2013-02-18 11:17:00,
2013-02-18 06:22:00,15.2,6.6,30.08,WSW,243,0.0,0.0,68,0.00,,CLR,0.00,VWS V14.00,2013-02-18 11:22:00,
2013-02-18 06:27:00,15.0,6.4,30.09,SW,232,0.0,7.6,68,0.00,,CLR,0.00,VWS V14.00,2013-02-18 11:27:00,
2013-02-18 06:32:00,15.2,6.8,30.09,SW,232,0.0,0.0,69,0.00,,CLR,0.00,VWS V14.00,2013-02-18 11:32:00,
2013-02-18 06:38:00,15.1,6.8,30.09,SW,232,0.0,0.0,69,0.00,,CLR,0.00,VWS V14.00,2013-02-18 11:38:00,
2013-02-18 06:43:00,15.1,7.0,30.10,SW,232,0.0,0.0,70,0.00,,CLR,0.00,VWS V14.00,2013-02-18 11:43:00,
2013-02-18 06:48:00,15.2,6.7,30.10,SW,232,0.0,0.0,68,0.00,,CLR,0.00,VWS V14.00,2013-02-18 11:48:00,
2013-02-18 06:53:00,15.2,6.7,30.10,SW,232,0.0,0.0,68,0.00,,CLR,0.00,VWS V14.00,2013-02-18 11:53:00,
2013-02-18 06:58:00,15.3,6.8,30.10,SW,232,0.0,0.0,68,0.00,,FEW250,0.00,VWS V14.00,2013-02-18 11:58:00,
2013-02-18 07:03:00,15.3,6.7,30.11,SW,232,0.0,0.0,68,0.00,,FEW250,0.00,VWS V14.00,2013-02-18 12:03:00,
2013-02-18 07:08:00,15.4,6.7,30.11,ENE,72,4.7,9.3,68,0.00,,FEW250,0.00,VWS V14.00,2013-02-18 12:08:00,
2013-02-18 07:13:00,15.5,6.8,30.11,West,262,0.0,11.2,68,0.00,,FEW250,0.00,VWS V14.00,2013-02-18 12:13:00,
2013-02-18 07:18:00,15.6,6.8,30.11,NNE,28,0.0,11.2,68,0.00,,FEW250,0.00,VWS V14.00,2013-02-18 12:18:00,
2013-02-18 07:23:00,15.7,7.3,30.12,NNE,25,3.4,12.6,69,0.00,,FEW250,0.00,VWS V14.00,2013-02-18 12:23:00,
2013-02-18 07:28:00,15.8,6.9,30.12,ESE,110,0.0,12.6,67,0.00,,FEW250,0.00,VWS V14.00,2013-02-18 12:28:00,
2013-02-18 07:33:00,15.9,7.1,30.12,ESE,110,0.0,0.0,68,0.00,,FEW250,0.00,VWS V14.00,2013-02-18 12:33:00,
2013-02-18 07:38:00,16.0,7.2,30.13,ESE,110,0.0,0.0,68,0.00,,FEW250,0.00,VWS V14.00,2013-02-18 12:38:00,
2013-02-18 07:43:00,16.0,7.5,30.13,ENE,77,0.0,11.4,69,0.00,,FEW250,0.00,VWS V14.00,2013-02-18 12:43:00,
2013-02-18 07:48:00,16.0,7.3,30.13,SW,232,0.0,11.4,68,0.00,,FEW250,0.00,VWS V14.00,2013-02-18 12:48:00,
2013-02-18 07:53:00,16.1,7.2,30.14,NNW,346,0.0,11.2,68,0.00,,FEW250,0.00,VWS V14.00,2013-02-18 12:53:00,
2013-02-18 07:58:00,16.3,7.4,30.15,WSW,248,0.0,11.2,67,0.00,,FEW250,0.00,VWS V14.00,2013-02-18 12:58:00,
2013-02-18 08:03:00,16.4,7.8,30.15,WSW,248,0.0,0.0,68,0.00,,FEW250,0.00,VWS V14.00,2013-02-18 13:03:00,
2013-02-18 08:08:00,16.4,7.2,30.15,West,281,0.0,11.4,67,0.00,,FEW250,0.00,VWS V14.00,2013-02-18 13:08:00,
2013-02-18 08:13:00,16.7,7.3,30.15,NNW,342,0.0,5.5,66,0.00,,FEW250,0.00,VWS V14.00,2013-02-18 13:13:00,
2013-02-18 08:18:00,16.9,7.8,30.15,NNW,342,0.0,5.5,67,0.00,,FEW250,0.00,VWS V14.00,2013-02-18 13:18:00,
2013-02-18 08:23:00,17.1,8.0,30.15,NNW,342,0.0,0.0,67,0.00,,FEW250,0.00,VWS V14.00,2013-02-18 13:23:00,
2013-02-18 08:29:00,17.2,8.4,30.15,NNW,342,0.0,0.0,68,0.00,,FEW250,0.00,VWS V14.00,2013-02-18 13:29:00,
2013-02-18 08:34:00,17.2,8.1,30.15,WSW,257,0.0,8.1,67,0.00,,FEW250,0.00,VWS V14.00,2013-02-18 13:34:00,
2013-02-18 08:39:00,17.4,8.0,30.16,WSW,257,0.0,8.1,66,0.00,,FEW250,0.00,VWS V14.00,2013-02-18 13:39:00,
2013-02-18 08:44:00,17.6,8.1,30.16,WSW,257,0.0,0.0,66,0.00,,FEW250,0.00,VWS V14.00,2013-02-18 13:44:00,
2013-02-18 08:49:00,17.8,8.4,30.16,WSW,257,0.0,0.0,66,0.00,,FEW250,0.00,VWS V14.00,2013-02-18 13:49:00,
2013-02-18 08:54:00,17.9,8.6,30.16,NW,312,0.0,6.4,66,0.00,,FEW250,0.00,VWS V14.00,2013-02-18 13:54:00,
2013-02-18 08:59:00,17.9,8.1,30.16,West,264,0.0,6.4,65,0.00,,SCT250,0.00,VWS V14.00,2013-02-18 13:59:00,
2013-02-18 09:04:00,18.2,8.4,30.16,West,270,0.0,4.3,65,0.00,,SCT250,0.00,VWS V14.00,2013-02-18 14:04:00,
2013-02-18 09:09:00,18.6,9.1,30.17,West,270,0.0,4.3,66,0.00,,SCT250,0.00,VWS V14.00,2013-02-18 14:09:00,
2013-02-18 09:14:00,18.7,9.2,30.17,NNE,14,0.0,7.8,66,0.00,,SCT250,0.00,VWS V14.00,2013-02-18 14:14:00,
2013-02-18 09:19:00,18.9,8.3,30.17,NW,323,0.0,11.3,63,0.00,,SCT250,0.00,VWS V14.00,2013-02-18 14:19:00,
2013-02-18 09:24:00,19.2,9.2,30.17,West,281,0.0,16.0,65,0.00,,SCT250,0.00,VWS V14.00,2013-02-18 14:24:00,
2013-02-18 09:29:00,19.3,8.2,30.17,NW,322,0.0,16.0,61,0.00,,SCT250,0.00,VWS V14.00,2013-02-18 14:29:00,
2013-02-18 09:34:00,19.6,8.6,30.18,West,278,4.2,7.6,62,0.00,,SCT250,0.00,VWS V14.00,2013-02-18 14:34:00,
2013-02-18 09:39:00,19.9,8.9,30.18,SSW,207,0.0,10.9,62,0.00,,SCT250,0.00,VWS V14.00,2013-02-18 14:39:00,
2013-02-18 09:45:00,19.9,8.7,30.17,WSW,243,0.0,12.2,61,0.00,,SCT250,0.00,VWS V14.00,2013-02-18 14:45:00,
2013-02-18 09:50:00,20.0,9.2,30.18,North,356,0.0,12.2,62,0.00,,SCT250,0.00,VWS V14.00,2013-02-18 14:50:00,
2013-02-18 09:55:00,20.4,8.9,30.18,NW,312,0.0,8.2,60,0.00,,SCT250,0.00,VWS V14.00,2013-02-18 14:55:00,
2013-02-18 10:00:00,20.6,9.0,30.18,NW,321,0.0,8.2,60,0.00,,BKN250,0.00,VWS V14.00,2013-02-18 15:00:00,
2013-02-18 10:05:00,20.9,8.8,30.18,East,89,0.0,10.6,59,0.00,,BKN250,0.00,VWS V14.00,2013-02-18 15:05:00,
2013-02-18 10:10:00,21.2,9.4,30.19,SW,231,0.0,0.0,60,0.00,,BKN250,0.00,VWS V14.00,2013-02-18 15:10:00,
2013-02-18 10:15:00,21.5,9.7,30.18,WSW,245,0.0,8.6,60,0.00,,BKN250,0.00,VWS V14.00,2013-02-18 15:15:00,
2013-02-18 10:20:00,21.5,9.2,30.19,SSW,212,5.2,6.2,58,0.00,,BKN250,0.00,VWS V14.00,2013-02-18 15:20:00,
2013-02-18 10:25:00,21.8,9.7,30.19,WSW,250,0.0,11.6,59,0.00,,BKN250,0.00,VWS V14.00,2013-02-18 15:25:00,
2013-02-18 10:31:00,22.3,10.3,30.19,WNW,295,5.3,5.3,59,0.00,,BKN250,0.00,VWS V14.00,2013-02-18 15:31:00,
2013-02-18 10:36:00,22.3,10.5,30.19,WSW,246,8.0,13.5,60,0.00,,BKN250,0.00,VWS V14.00,2013-02-18 15:36:00,
2013-02-18 10:41:00,22.2,10.5,30.20,West,281,0.0,4.8,60,0.00,,BKN250,0.00,VWS V14.00,2013-02-18 15:41:00,
2013-02-18 10:46:00,22.5,10.0,30.20,West,260,0.0,9.6,58,0.00,,BKN250,0.00,VWS V14.00,2013-02-18 15:46:00,
2013-02-18 10:51:00,22.7,11.1,30.20,WSW,253,0.0,0.0,60,0.00,,BKN250,0.00,VWS V14.00,2013-02-18 15:51:00,
2013-02-18 10:56:00,23.2,10.7,30.20,WSW,253,0.0,0.0,58,0.00,,BKN250,0.00,VWS V14.00,2013-02-18 15:56:00,
2013-02-18 11:01:00,23.8,11.5,30.19,WSW,253,0.0,0.0,59,0.00,,BKN250,0.00,VWS V14.00,2013-02-18 16:01:00,
2013-02-18 11:06:00,24.1,10.6,30.20,West,262,0.0,8.6,56,0.00,,BKN250,0.00,VWS V14.00,2013-02-18 16:06:00,
2013-02-18 11:11:00,24.6,10.6,30.20,NW,319,0.0,0.0,55,0.00,,BKN250,0.00,VWS V14.00,2013-02-18 16:11:00,
2013-02-18 11:16:00,24.6,10.2,30.19,SSW,202,0.0,10.9,54,0.00,,BKN250,0.00,VWS V14.00,2013-02-18 16:16:00,
2013-02-18 11:21:00,24.7,10.8,30.20,West,274,2.9,10.4,55,0.00,,BKN250,0.00,VWS V14.00,2013-02-18 16:21:00,
2013-02-18 11:27:00,24.8,10.4,30.19,WSW,242,0.0,11.2,54,0.00,,BKN250,0.00,VWS V14.00,2013-02-18 16:27:00,
2013-02-18 11:32:00,25.1,10.9,30.19,WSW,257,0.0,0.0,54,0.00,,BKN250,0.00,VWS V14.00,2013-02-18 16:32:00,
2013-02-18 11:37:00,25.7,11.3,30.19,WSW,239,0.0,8.0,54,0.00,,BKN250,0.00,VWS V14.00,2013-02-18 16:37:00,
2013-02-18 11:42:00,25.7,11.0,30.20,North,354,0.0,8.5,53,0.00,,BKN250,0.00,VWS V14.00,2013-02-18 16:42:00,
2013-02-18 11:47:00,25.7,10.7,30.20,WSW,255,0.0,16.9,52,0.00,,BKN250,0.00,VWS V14.00,2013-02-18 16:47:00,
2013-02-18 11:52:00,25.9,11.9,30.19,SSW,208,5.6,9.9,55,0.00,,BKN250,0.00,VWS V14.00,2013-02-18 16:52:00,
2013-02-18 11:58:00,26.0,11.4,30.19,North,4,0.0,12.1,53,0.00,,BKN250,0.00,VWS V14.00,2013-02-18 16:58:00,
2013-02-18 12:03:00,26.3,11.7,30.19,West,260,0.0,0.0,53,0.00,,BKN250,0.00,VWS V14.00,2013-02-18 17:03:00,
2013-02-18 12:08:00,26.7,11.0,30.20,WNW,284,5.0,8.9,51,0.00,,BKN250,0.00,VWS V14.00,2013-02-18 17:08:00,
2013-02-18 12:13:00,26.7,10.4,30.19,West,263,0.0,14.5,50,0.00,,BKN250,0.00,VWS V14.00,2013-02-18 17:13:00,
2013-02-18 12:18:00,27.0,11.9,30.19,SW,228,0.0,14.5,52,0.00,,BKN250,0.00,VWS V14.00,2013-02-18 17:18:00,
2013-02-18 12:23:00,27.5,11.9,30.18,WSW,245,0.0,5.2,51,0.00,,BKN250,0.00,VWS V14.00,2013-02-18 17:23:00,
2013-02-18 12:28:00,28.1,13.2,30.18,SSW,194,0.0,12.4,53,0.00,,BKN250,0.00,VWS V14.00,2013-02-18 17:28:00,
2013-02-18 12:33:00,28.2,12.5,30.18,SSW,194,0.0,0.0,51,0.00,,BKN250,0.00,VWS V14.00,2013-02-18 17:33:00,
2013-02-18 12:38:00,28.5,13.1,30.18,NW,321,0.0,9.0,52,0.00,,BKN250,0.00,VWS V14.00,2013-02-18 17:38:00,
2013-02-18 12:43:00,28.4,11.0,30.18,SW,226,3.1,18.3,48,0.00,,BKN250,0.00,VWS V14.00,2013-02-18 17:43:00,
2013-02-18 12:48:00,28.2,10.7,30.18,SE,135,0.0,18.3,47,0.00,,BKN250,0.00,VWS V14.00,2013-02-18 17:48:00,
2013-02-18 12:53:00,28.7,11.5,30.18,North,8,0.0,5.6,48,0.00,,BKN250,0.00,VWS V14.00,2013-02-18 17:53:00,
2013-02-18 12:59:00,29.3,13.9,30.17,SW,214,0.0,11.1,52,0.00,,BKN250,0.00,VWS V14.00,2013-02-18 17:59:00,
2013-02-18 13:04:00,29.6,13.6,30.17,NNE,15,0.0,8.9,51,0.00,,BKN250,0.00,VWS V14.00,2013-02-18 18:04:00,
2013-02-18 13:09:00,29.5,13.8,30.17,North,8,3.4,8.9,51,0.00,,BKN250,0.00,VWS V14.00,2013-02-18 18:09:00,
2013-02-18 13:14:00,29.6,12.4,30.17,WSW,239,5.0,11.7,48,0.00,,BKN250,0.00,VWS V14.00,2013-02-18 18:14:00,
2013-02-18 13:19:00,29.8,12.2,30.16,NW,322,5.2,11.7,47,0.00,,BKN250,0.00,VWS V14.00,2013-02-18 18:19:00,
2013-02-18 13:24:00,29.6,11.5,30.16,SW,236,0.0,14.2,46,0.00,,BKN250,0.00,VWS V14.00,2013-02-18 18:24:00,
2013-02-18 13:29:00,29.9,13.4,30.16,South,179,0.0,14.2,50,0.00,,BKN250,0.00,VWS V14.00,2013-02-18 18:29:00,
2013-02-18 13:34:00,30.3,13.7,30.16,SW,233,0.0,10.3,50,0.00,,BKN250,0.00,VWS V14.00,2013-02-18 18:34:00,
2013-02-18 13:39:00,30.5,13.9,30.16,SW,233,0.0,10.3,50,0.00,,BKN250,0.00,VWS V14.00,2013-02-18 18:39:00,
2013-02-18 13:44:00,30.9,12.8,30.16,SW,226,0.0,0.0,46,0.00,,BKN250,0.00,VWS V14.00,2013-02-18 18:44:00,
2013-02-18 13:49:00,30.9,13.0,30.16,West,262,0.0,11.6,47,0.00,,BKN250,0.00,VWS V14.00,2013-02-18 18:49:00,
2013-02-18 13:54:00,31.4,16.1,30.16,SSW,204,0.0,5.7,53,0.00,,BKN250,0.00,VWS V14.00,2013-02-18 18:54:00,
2013-02-18 14:00:00,31.2,13.5,30.16,NNW,332,4.7,10.4,47,0.00,,BKN250,0.00,VWS V14.00,2013-02-18 19:00:00,
2013-02-18 14:05:00,30.9,12.4,30.15,West,276,0.0,10.5,46,0.00,,BKN250,0.00,VWS V14.00,2013-02-18 19:05:00,
2013-02-18 14:10:00,31.1,12.2,30.15,SW,222,0.0,12.6,45,0.00,,BKN250,0.00,VWS V14.00,2013-02-18 19:10:00,
2013-02-18 14:15:00,31.6,14.2,30.15,NW,308,3.1,7.8,48,0.00,,BKN250,0.00,VWS V14.00,2013-02-18 19:15:00,
2013-02-18 14:20:00,31.4,12.9,30.15,West,277,0.0,0.0,46,0.00,,BKN250,0.00,VWS V14.00,2013-02-18 19:20:00,
2013-02-18 14:25:00,31.1,12.1,30.15,North,357,0.0,10.2,45,0.00,,BKN250,0.00,VWS V14.00,2013-02-18 19:25:00,
2013-02-18 14:31:00,31.3,13.3,30.15,WSW,239,0.0,4.8,47,0.00,,BKN250,0.00,VWS V14.00,2013-02-18 19:31:00,
2013-02-18 14:36:00,31.3,12.7,30.15,West,277,0.0,6.3,46,0.00,,BKN250,0.00,VWS V14.00,2013-02-18 19:36:00,
2013-02-18 14:41:00,31.3,15.1,30.15,NW,323,0.0,0.0,50,0.00,,BKN250,0.00,VWS V14.00,2013-02-18 19:41:00,
2013-02-18 14:46:00,31.4,13.0,30.15,West,269,0.0,8.8,46,0.00,,BKN250,0.00,VWS V14.00,2013-02-18 19:46:00,
2013-02-18 14:51:00,31.3,12.3,30.15,ENE,60,0.0,5.2,45,0.00,,BKN250,0.00,VWS V14.00,2013-02-18 19:51:00,
2013-02-18 14:56:00,31.3,14.5,30.15,WSW,256,0.0,9.4,49,0.00,,BKN250,0.00,VWS V14.00,2013-02-18 19:56:00,
2013-02-18 15:01:00,31.5,15.8,30.15,WSW,245,0.0,4.8,52,0.00,,BKN250,0.00,VWS V14.00,2013-02-18 20:01:00,
2013-02-18 15:06:00,31.4,13.8,30.15,SW,231,3.1,11.7,48,0.00,,BKN250,0.00,VWS V14.00,2013-02-18 20:06:00,
2013-02-18 15:12:00,31.5,12.2,30.15,WSW,250,0.0,0.0,44,0.00,,BKN250,0.00,VWS V14.00,2013-02-18 20:12:00,
2013-02-18 15:17:00,31.5,13.6,30.15,NNW,342,0.0,10.8,47,0.00,,BKN250,0.00,VWS V14.00,2013-02-18 20:17:00,
2013-02-18 15:22:00,31.5,12.8,30.15,SW,224,0.0,5.6,45,0.00,,BKN250,0.00,VWS V14.00,2013-02-18 20:22:00,
2013-02-18 15:27:00,31.7,14.6,30.15,SW,224,0.0,5.6,49,0.00,,BKN250,0.00,VWS V14.00,2013-02-18 20:27:00,
2013-02-18 15:32:00,31.8,14.1,30.16,SW,224,0.0,0.0,48,0.00,,BKN250,0.00,VWS V14.00,2013-02-18 20:32:00,
2013-02-18 15:37:00,31.9,13.6,30.15,SSW,212,8.5,9.0,46,0.00,,BKN250,0.00,VWS V14.00,2013-02-18 20:37:00,
2013-02-18 15:42:00,31.7,12.8,30.15,WSW,256,0.0,11.1,45,0.00,,BKN250,0.00,VWS V14.00,2013-02-18 20:42:00,
2013-02-18 15:47:00,31.7,13.9,30.16,West,273,0.0,11.1,47,0.00,,BKN250,0.00,VWS V14.00,2013-02-18 20:47:00,
2013-02-18 15:52:00,31.7,14.5,30.16,West,259,0.0,5.5,48,0.00,,BKN250,0.00,VWS V14.00,2013-02-18 20:52:00,
2013-02-18 15:57:00,31.9,13.3,30.16,South,177,0.0,9.4,46,0.00,,BKN250,0.00,VWS V14.00,2013-02-18 20:57:00,
2013-02-18 16:02:00,31.7,13.1,30.16,WSW,256,0.0,13.3,46,0.00,,BKN250,0.00,VWS V14.00,2013-02-18 21:02:00,
2013-02-18 16:07:00,31.6,12.8,30.16,WNW,298,7.3,13.3,45,0.00,,BKN250,0.00,VWS V14.00,2013-02-18 21:07:00,
2013-02-18 16:13:00,31.9,13.1,30.16,WNW,300,5.5,8.5,45,0.00,,BKN250,0.00,VWS V14.00,2013-02-18 21:13:00,
2013-02-18 16:18:00,31.7,11.4,30.15,WSW,252,4.2,10.7,42,0.00,,BKN250,0.00,VWS V14.00,2013-02-18 21:18:00,
2013-02-18 16:23:00,31.9,13.3,30.16,West,259,0.0,6.5,46,0.00,,BKN250,0.00,VWS V14.00,2013-02-18 21:23:00,
2013-02-18 16:28:00,32.0,15.8,30.16,West,259,0.0,6.5,51,0.00,,BKN250,0.00,VWS V14.00,2013-02-18 21:28:00,
2013-02-18 16:33:00,31.9,14.0,30.17,West,280,0.0,7.8,47,0.00,,BKN250,0.00,VWS V14.00,2013-02-18 21:33:00,
2013-02-18 16:38:00,32.0,12.7,30.17,West,280,0.0,7.8,44,0.00,,BKN250,0.00,VWS V14.00,2013-02-18 21:38:00,
2013-02-18 16:43:00,31.9,12.7,30.17,West,280,0.0,4.9,44,0.00,,BKN250,0.00,VWS V14.00,2013-02-18 21:43:00,
2013-02-18 16:48:00,31.9,12.7,30.17,West,280,0.0,4.9,44,0.00,,BKN250,0.00,VWS V14.00,2013-02-18 21:48:00,
2013-02-18 16:53:00,31.9,12.6,30.17,West,280,0.0,0.0,44,0.00,,BKN250,0.00,VWS V14.00,2013-02-18 21:53:00,
2013-02-18 16:58:00,31.8,13.1,30.17,West,280,0.0,0.0,45,0.00,,SCT250,0.00,VWS V14.00,2013-02-18 21:58:00,
2013-02-18 17:03:00,31.7,13.0,30.17,West,280,0.0,0.0,45,0.00,,SCT250,0.00,VWS V14.00,2013-02-18 22:03:00,
2013-02-18 17:08:00,31.7,14.2,30.17,West,280,0.0,0.0,48,0.00,,SCT250,0.00,VWS V14.00,2013-02-18 22:08:00,
2013-02-18 17:13:00,31.5,13.2,30.18,West,280,0.0,0.0,46,0.00,,SCT250,0.00,VWS V14.00,2013-02-18 22:13:00,
2013-02-18 17:18:00,31.6,13.8,30.17,West,280,0.0,0.0,47,0.00,,SCT250,0.00,VWS V14.00,2013-02-18 22:18:00,
2013-02-18 17:23:00,31.5,15.0,30.17,West,280,0.0,0.0,50,0.00,,SCT250,0.00,VWS V14.00,2013-02-18 22:23:00,
2013-02-18 17:29:00,31.5,13.3,30.18,West,280,0.0,0.0,46,0.00,,SCT250,0.00,VWS V14.00,2013-02-18 22:29:00,
2013-02-18 17:34:00,31.4,13.2,30.17,West,280,0.0,0.0,46,0.00,,SCT250,0.00,VWS V14.00,2013-02-18 22:34:00,
2013-02-18 17:39:00,31.3,13.1,30.18,West,280,0.0,0.0,46,0.00,,SCT250,0.00,VWS V14.00,2013-02-18 22:39:00,
2013-02-18 17:44:00,31.2,14.2,30.18,West,280,0.0,0.0,49,0.00,,SCT250,0.00,VWS V14.00,2013-02-18 22:44:00,
2013-02-18 17:49:00,31.0,14.2,30.18,West,280,0.0,0.0,49,0.00,,SCT250,0.00,VWS V14.00,2013-02-18 22:49:00,
2013-02-18 17:54:00,30.8,15.6,30.18,West,280,0.0,0.0,53,0.00,,SCT250,0.00,VWS V14.00,2013-02-18 22:54:00,
2013-02-18 17:59:00,30.5,15.3,30.19,West,280,0.0,0.0,53,0.00,,FEW120,0.00,VWS V14.00,2013-02-18 22:59:00,
2013-02-18 18:04:00,30.1,14.5,30.18,West,280,0.0,0.0,52,0.00,,FEW120,0.00,VWS V14.00,2013-02-18 23:04:00,
2013-02-18 18:09:00,29.9,15.2,30.18,West,280,0.0,0.0,54,0.00,,FEW120,0.00,VWS V14.00,2013-02-18 23:09:00,
2013-02-18 18:14:00,29.6,15.9,30.18,West,280,0.0,0.0,56,0.00,,FEW120,0.00,VWS V14.00,2013-02-18 23:14:00,
2013-02-18 18:19:00,29.3,16.0,30.19,West,280,0.0,0.0,57,0.00,,FEW120,0.00,VWS V14.00,2013-02-18 23:19:00,
2013-02-18 18:24:00,29.0,16.5,30.19,West,280,0.0,0.0,59,0.00,,FEW120,0.00,VWS V14.00,2013-02-18 23:24:00,
2013-02-18 18:29:00,28.6,16.6,30.19,West,280,0.0,0.0,60,0.00,,FEW120,0.00,VWS V14.00,2013-02-18 23:29:00,
2013-02-18 18:34:00,28.2,16.8,30.20,West,280,0.0,0.0,62,0.00,,FEW120,0.00,VWS V14.00,2013-02-18 23:34:00,
2013-02-18 18:40:00,27.9,17.4,30.20,West,280,0.0,0.0,64,0.00,,FEW120,0.00,VWS V14.00,2013-02-18 23:40:00,
2013-02-18 18:45:00,27.6,17.6,30.20,West,280,0.0,0.0,66,0.00,,FEW120,0.00,VWS V14.00,2013-02-18 23:45:00,
2013-02-18 18:50:00,27.2,17.8,30.20,West,280,0.0,0.0,67,0.00,,FEW120,0.00,VWS V14.00,2013-02-18 23:50:00,
2013-02-18 18:55:00,26.9,17.1,30.20,West,280,0.0,0.0,66,0.00,,FEW120,0.00,VWS V14.00,2013-02-18 23:55:00,
2013-02-18 19:00:00,26.7,16.4,30.20,West,280,0.0,0.0,64,0.00,,FEW120,0.00,VWS V14.00,2013-02-19 00:00:00,
2013-02-18 19:05:00,26.8,15.6,30.20,West,280,0.0,0.0,62,0.00,,FEW120,0.00,VWS V14.00,2013-02-19 00:05:00,
2013-02-18 19:10:00,27.1,16.0,30.20,West,280,0.0,0.0,63,0.00,,FEW120,0.00,VWS V14.00,2013-02-19 00:10:00,
2013-02-18 19:15:00,27.4,15.7,30.20,West,280,0.0,0.0,61,0.00,,FEW120,0.00,VWS V14.00,2013-02-19 00:15:00,
2013-02-18 19:20:00,27.5,16.6,30.20,West,280,0.0,0.0,63,0.00,,FEW120,0.00,VWS V14.00,2013-02-19 00:20:00,
2013-02-18 19:25:00,27.4,17.2,30.20,West,280,0.0,0.0,65,0.00,,FEW120,0.00,VWS V14.00,2013-02-19 00:25:00,
2013-02-18 19:30:00,27.1,16.5,30.20,West,280,0.0,0.0,64,0.00,,FEW120,0.00,VWS V14.00,2013-02-19 00:30:00,
2013-02-18 19:35:00,27.0,16.6,30.20,West,280,0.0,0.0,64,0.00,,FEW120,0.00,VWS V14.00,2013-02-19 00:35:00,
2013-02-18 19:40:00,26.8,16.8,30.20,West,280,0.0,0.0,66,0.00,,FEW120,0.00,VWS V14.00,2013-02-19 00:40:00,
2013-02-18 19:45:00,26.5,16.8,30.20,West,280,0.0,0.0,66,0.00,,FEW120,0.00,VWS V14.00,2013-02-19 00:45:00,
2013-02-18 19:50:00,26.4,17.1,30.20,West,280,0.0,0.0,68,0.00,,FEW120,0.00,VWS V14.00,2013-02-19 00:50:00,
2013-02-18 19:55:00,26.1,17.2,30.20,West,280,0.0,0.0,69,0.00,,FEW120,0.00,VWS V14.00,2013-02-19 00:55:00,
2013-02-18 20:00:00,25.8,17.0,30.20,West,280,0.0,0.0,69,0.00,,SCT250,0.00,VWS V14.00,2013-02-19 01:00:00,
2013-02-18 20:05:00,25.6,17.5,30.20,West,280,0.0,0.0,71,0.00,,SCT250,0.00,VWS V14.00,2013-02-19 01:05:00,
2013-02-18 20:10:00,25.4,17.1,30.20,West,280,0.0,0.0,70,0.00,,SCT250,0.00,VWS V14.00,2013-02-19 01:10:00,
2013-02-18 20:15:00,25.1,17.1,30.20,West,280,0.0,0.0,71,0.00,,SCT250,0.00,VWS V14.00,2013-02-19 01:15:00,
2013-02-18 20:21:00,24.9,16.9,30.20,West,280,0.0,0.0,71,0.00,,SCT250,0.00,VWS V14.00,2013-02-19 01:21:00,
2013-02-18 20:26:00,24.7,16.9,30.20,West,280,0.0,0.0,72,0.00,,SCT250,0.00,VWS V14.00,2013-02-19 01:26:00,
2013-02-18 20:31:00,24.5,16.8,30.20,West,280,0.0,0.0,72,0.00,,SCT250,0.00,VWS V14.00,2013-02-19 01:31:00,
2013-02-18 20:36:00,24.3,16.6,30.20,West,280,0.0,0.0,72,0.00,,SCT250,0.00,VWS V14.00,2013-02-19 01:36:00,
2013-02-18 20:41:00,24.2,16.6,30.20,West,280,0.0,0.0,72,0.00,,SCT250,0.00,VWS V14.00,2013-02-19 01:41:00,
2013-02-18 20:46:00,24.0,16.3,30.21,West,280,0.0,0.0,72,0.00,,SCT250,0.00,VWS V14.00,2013-02-19 01:46:00,
2013-02-18 20:51:00,23.9,16.0,30.21,West,280,0.0,0.0,72,0.00,,SCT250,0.00,VWS V14.00,2013-02-19 01:51:00,
2013-02-18 20:57:00,23.8,16.4,30.22,West,280,0.0,0.0,73,0.00,,SCT250,0.00,VWS V14.00,2013-02-19 01:57:00,
2013-02-18 21:02:00,23.8,16.4,30.21,West,280,0.0,0.0,73,0.00,,BKN250,0.00,VWS V14.00,2013-02-19 02:02:00,
2013-02-18 21:07:00,23.7,16.8,30.22,West,280,0.0,0.0,75,0.00,,BKN250,0.00,VWS V14.00,2013-02-19 02:07:00,
2013-02-18 21:12:00,23.7,16.8,30.22,West,280,0.0,0.0,75,0.00,,BKN250,0.00,VWS V14.00,2013-02-19 02:12:00,
2013-02-18 21:17:00,23.6,16.7,30.22,West,280,0.0,0.0,75,0.00,,BKN250,0.00,VWS V14.00,2013-02-19 02:17:00,
2013-02-18 21:22:00,23.6,16.6,30.21,West,280,0.0,0.0,74,0.00,,BKN250,0.00,VWS V14.00,2013-02-19 02:22:00,
2013-02-18 21:27:00,23.6,17.0,30.21,West,280,0.0,0.0,75,0.00,,BKN250,0.00,VWS V14.00,2013-02-19 02:27:00,
2013-02-18 21:32:00,23.5,17.1,30.21,West,280,0.0,0.0,76,0.00,,BKN250,0.00,VWS V14.00,2013-02-19 02:32:00,
2013-02-18 21:37:00,23.4,17.0,30.21,West,280,0.0,0.0,76,0.00,,BKN250,0.00,VWS V14.00,2013-02-19 02:37:00,
2013-02-18 21:42:00,23.2,16.9,30.21,West,280,0.0,0.0,76,0.00,,BKN250,0.00,VWS V14.00,2013-02-19 02:42:00,
2013-02-18 21:48:00,23.1,16.7,30.21,West,280,0.0,0.0,76,0.00,,BKN250,0.00,VWS V14.00,2013-02-19 02:48:00,
2013-02-18 21:53:00,23.0,17.2,30.20,West,280,0.0,0.0,78,0.00,,BKN250,0.00,VWS V14.00,2013-02-19 02:53:00,
2013-02-18 21:58:00,22.9,17.0,30.21,West,280,0.0,0.0,78,0.00,,BKN250,0.00,VWS V14.00,2013-02-19 02:58:00,
2013-02-18 22:03:00,22.8,16.8,30.21,West,280,0.0,0.0,78,0.00,,OVC200,0.00,VWS V14.00,2013-02-19 03:03:00,
2013-02-18 22:09:00,22.7,16.9,30.20,West,280,0.0,0.0,78,0.00,,OVC200,0.00,VWS V14.00,2013-02-19 03:09:00,
2013-02-18 22:14:00,22.8,17.1,30.20,West,280,0.0,0.0,78,0.00,,OVC200,0.00,VWS V14.00,2013-02-19 03:14:00,
2013-02-18 22:19:00,22.8,17.4,30.20,West,280,0.0,0.0,79,0.00,,OVC200,0.00,VWS V14.00,2013-02-19 03:19:00,
2013-02-18 22:24:00,22.7,17.2,30.20,West,280,0.0,0.0,79,0.00,,OVC200,0.00,VWS V14.00,2013-02-19 03:24:00,
2013-02-18 22:29:00,22.6,17.2,30.21,West,280,0.0,0.0,79,0.00,,OVC200,0.00,VWS V14.00,2013-02-19 03:29:00,
2013-02-18 22:34:00,22.6,17.6,30.21,West,280,0.0,0.0,81,0.00,,OVC200,0.00,VWS V14.00,2013-02-19 03:34:00,
2013-02-18 22:39:00,22.6,17.5,30.21,West,280,0.0,0.0,80,0.00,,OVC200,0.00,VWS V14.00,2013-02-19 03:39:00,
2013-02-18 22:44:00,22.6,17.4,30.21,West,280,0.0,0.0,80,0.00,,OVC200,0.00,VWS V14.00,2013-02-19 03:44:00,
2013-02-18 22:49:00,22.5,17.1,30.21,West,280,0.0,0.0,80,0.00,,OVC200,0.00,VWS V14.00,2013-02-19 03:49:00,
2013-02-18 22:55:00,22.4,17.0,30.21,West,280,0.0,0.0,79,0.00,,OVC200,0.00,VWS V14.00,2013-02-19 03:55:00,
2013-02-18 23:00:00,22.4,16.9,30.21,West,280,0.0,0.0,79,0.00,,BKN250,0.00,VWS V14.00,2013-02-19 04:00:00,
2013-02-18 23:05:00,22.3,16.8,30.22,West,280,0.0,0.0,79,0.00,,BKN250,0.00,VWS V14.00,2013-02-19 04:05:00,
2013-02-18 23:10:00,22.3,16.9,30.22,West,280,0.0,0.0,80,0.00,,BKN250,0.00,VWS V14.00,2013-02-19 04:10:00,
2013-02-18 23:15:00,22.4,17.1,30.22,West,280,0.0,0.0,80,0.00,,BKN250,0.00,VWS V14.00,2013-02-19 04:15:00,
2013-02-18 23:21:00,22.5,17.2,30.22,West,280,0.0,0.0,80,0.00,,BKN250,0.00,VWS V14.00,2013-02-19 04:21:00,
2013-02-18 23:26:00,22.6,17.4,30.22,West,280,0.0,0.0,80,0.00,,BKN250,0.00,VWS V14.00,2013-02-19 04:26:00,
2013-02-18 23:31:00,22.7,17.8,30.21,West,280,0.0,0.0,81,0.00,,BKN250,0.00,VWS V14.00,2013-02-19 04:31:00,
2013-02-18 23:36:00,22.8,18.2,30.22,West,280,0.0,0.0,82,0.00,,BKN250,0.00,VWS V14.00,2013-02-19 04:36:00,
2013-02-18 23:41:00,23.0,18.4,30.22,West,280,0.0,0.0,82,0.00,,BKN250,0.00,VWS V14.00,2013-02-19 04:41:00,
2013-02-18 23:46:00,23.0,18.5,30.22,West,280,0.0,0.0,82,0.00,,BKN250,0.00,VWS V14.00,2013-02-19 04:46:00,
2013-02-18 23:52:00,23.1,18.7,30.22,West,280,0.0,0.0,83,0.00,,BKN250,0.00,VWS V14.00,2013-02-19 04:52:00,
2013-02-18 23:57:00,23.1,18.6,30.22,West,280,0.0,0.0,82,0.00,,BKN250,0.00,VWS V14.00,2013-02-19 04:57:00,